Location: East Horndon
(51.5667°N, 0.3500°E)
Time: 22:53:09
(UTC+00:00)

Iridium 4 Rocket - Pass Details

Date: 08 November 2025
Orbit: 579 x 888 km, 86.9° (Epoch: 04 December)

Event Time Altitude Azimuth Distance (km) Brightness Sun altitude
Rises 04:23:48 0° 1° (N) 2,983 6.6 -25.1°
Reaches altitude 10° 04:26:15 10° 9° (N) 2,025 5.8 -24.7°
Maximum altitude 04:30:24 39° 79° (E) 916 4.4 -24.1°
Drops below altitude 10° 04:34:19 10° 149° (SSE) 1,910 5.9 -23.5°
Sets 04:36:34 0° 157° (SSE) 2,792 6.7 -23.1°
